Time,TemperatureF,DewpointF,PressureIn,WindDirection,WindDirectionDegrees,WindSpeedMPH,WindSpeedGustMPH,Humidity,HourlyPrecipIn,Conditions,Clouds,dailyrainin,SolarRadiationWatts/m^2,SoftwareType,DateUTC
2013-01-03 00:02:00,21.0,18.0,30.04,NNW,332,2.0,2.0,88,0.00,,---,0.00,0.00,VWS V14.00,2013-01-03 06:02:00,
2013-01-03 00:07:00,21.0,18.0,30.04,NW,305,5.0,5.0,88,0.00,,---,0.00,0.00,VWS V14.00,2013-01-03 06:07:00,
2013-01-03 00:12:00,21.0,18.0,30.04,WNW,299,2.0,2.0,88,0.00,,---,0.00,0.00,VWS V14.00,2013-01-03 06:12:00,
2013-01-03 00:17:00,21.0,18.0,30.04,NW,308,8.0,8.0,88,0.00,,---,0.00,0.00,VWS V14.00,2013-01-03 06:17:00,
2013-01-03 00:22:00,21.0,17.8,30.04,WNW,289,2.0,2.0,87,0.00,,---,0.00,0.00,VWS V14.00,2013-01-03 06:22:00,
2013-01-03 00:27:00,20.6,17.4,30.04,NW,308,5.0,5.0,87,0.00,,---,0.00,0.00,VWS V14.00,2013-01-03 06:27:00,
2013-01-03 00:32:00,20.6,17.4,30.04,WNW,288,4.0,4.0,87,0.00,,---,0.00,0.00,VWS V14.00,2013-01-03 06:32:00,
2013-01-03 00:37:00,20.2,17.0,30.04,WNW,294,6.0,6.0,87,0.00,,---,0.00,0.00,VWS V14.00,2013-01-03 06:37:00,
2013-01-03 00:42:00,20.2,17.0,30.04,NW,306,5.0,5.0,87,0.00,,---,0.00,0.00,VWS V14.00,2013-01-03 06:42:00,
2013-01-03 00:47:00,20.0,16.8,30.05,WNW,287,6.0,6.0,87,0.00,,---,0.00,0.00,VWS V14.00,2013-01-03 06:47:00,
2013-01-03 00:52:00,19.9,16.7,30.05,WNW,287,5.0,5.0,87,0.00,,---,0.00,0.00,VWS V14.00,2013-01-03 06:52:00,
2013-01-03 00:57:00,19.7,16.5,30.05,WNW,298,3.0,3.0,87,0.00,,---,0.00,0.00,VWS V14.00,2013-01-03 06:57:00,
2013-01-03 01:02:00,19.7,16.5,30.05,NW,312,6.0,6.0,87,0.00,,---,0.00,0.00,VWS V14.00,2013-01-03 07:02:00,
2013-01-03 01:07:00,19.7,16.5,30.05,NW,311,4.0,4.0,87,0.00,,---,0.00,0.00,VWS V14.00,2013-01-03 07:07:00,
2013-01-03 01:12:00,19.5,16.3,30.05,NW,306,6.0,10.0,87,0.00,,---,0.00,0.00,VWS V14.00,2013-01-03 07:12:00,
2013-01-03 01:17:00,19.5,16.3,30.05,NW,305,2.0,2.0,87,0.00,,---,0.00,0.00,VWS V14.00,2013-01-03 07:17:00,
2013-01-03 01:22:00,19.4,15.1,30.05,WNW,301,5.0,5.0,83,0.00,,---,0.00,0.00,VWS V14.00,2013-01-03 07:22:00,
2013-01-03 01:27:00,19.4,15.1,30.05,WNW,294,3.0,3.0,83,0.00,,---,0.00,0.00,VWS V14.00,2013-01-03 07:27:00,
2013-01-03 01:32:00,19.2,14.9,30.06,WNW,298,4.0,4.0,83,0.00,,---,0.00,0.00,VWS V14.00,2013-01-03 07:32:00,
2013-01-03 01:37:00,19.2,14.9,30.06,NW,308,5.0,5.0,83,0.00,,---,0.00,0.00,VWS V14.00,2013-01-03 07:37:00,
2013-01-03 01:42:00,19.2,14.9,30.06,WNW,287,4.0,4.0,83,0.00,,---,0.00,0.00,VWS V14.00,2013-01-03 07:42:00,
2013-01-03 01:47:00,19.1,14.8,30.06,WNW,292,2.0,2.0,83,0.00,,---,0.00,0.00,VWS V14.00,2013-01-03 07:47:00,
2013-01-03 01:52:00,19.1,14.8,30.06,NW,304,6.0,6.0,83,0.00,,---,0.00,0.00,VWS V14.00,2013-01-03 07:52:00,
2013-01-03 01:57:00,18.9,14.6,30.06,WNW,298,2.0,7.0,83,0.00,,---,0.00,0.00,VWS V14.00,2013-01-03 07:57:00,
2013-01-03 02:02:00,18.9,14.6,30.06,NNW,329,6.0,6.0,83,0.00,,---,0.00,0.00,VWS V14.00,2013-01-03 08:02:00,
2013-01-03 02:07:00,18.9,14.6,30.06,WNW,289,3.0,10.0,83,0.00,,---,0.00,0.00,VWS V14.00,2013-01-03 08:07:00,
2013-01-03 02:12:00,18.9,13.8,30.06,NW,320,6.0,6.0,80,0.00,,---,0.00,0.00,VWS V14.00,2013-01-03 08:12:00,
2013-01-03 02:17:00,18.8,13.7,30.07,West,280,1.0,4.0,80,0.00,,---,0.00,0.00,VWS V14.00,2013-01-03 08:17:00,
2013-01-03 02:22:00,18.8,13.7,30.07,West,270,8.0,8.0,80,0.00,,---,0.00,0.00,VWS V14.00,2013-01-03 08:22:00,
2013-01-03 02:27:00,18.6,13.5,30.07,West,271,1.0,1.0,80,0.00,,---,0.00,0.00,VWS V14.00,2013-01-03 08:27:00,
2013-01-03 02:32:00,18.6,13.5,30.08,WNW,295,2.0,3.0,80,0.00,,---,0.00,0.00,VWS V14.00,2013-01-03 08:32:00,
2013-01-03 02:37:00,18.4,13.3,30.08,West,275,3.0,3.0,80,0.00,,---,0.00,0.00,VWS V14.00,2013-01-03 08:37:00,
2013-01-03 02:42:00,18.4,13.3,30.08,West,263,4.0,4.0,80,0.00,,---,0.00,0.00,VWS V14.00,2013-01-03 08:42:00,
2013-01-03 02:47:00,18.4,13.3,30.08,West,272,2.0,2.0,80,0.00,,---,0.00,0.00,VWS V14.00,2013-01-03 08:47:00,
2013-01-03 02:52:00,18.1,13.0,30.08,NW,304,5.0,5.0,80,0.00,,---,0.00,0.00,VWS V14.00,2013-01-03 08:52:00,
2013-01-03 02:57:00,18.1,12.7,30.08,NW,308,2.0,2.0,79,0.00,,---,0.00,0.00,VWS V14.00,2013-01-03 08:57:00,
2013-01-03 03:02:00,18.1,12.7,30.08,NW,305,4.0,4.0,79,0.00,,---,0.00,0.00,VWS V14.00,2013-01-03 09:02:00,
2013-01-03 03:07:00,18.0,12.6,30.08,West,272,3.0,3.0,79,0.00,,---,0.00,0.00,VWS V14.00,2013-01-03 09:07:00,
2013-01-03 03:12:00,18.0,12.6,30.08,NNW,333,6.0,6.0,79,0.00,,---,0.00,0.00,VWS V14.00,2013-01-03 09:12:00,
2013-01-03 03:17:00,17.8,12.4,30.09,WSW,258,7.0,7.0,79,0.00,,---,0.00,0.00,VWS V14.00,2013-01-03 09:17:00,
2013-01-03 03:22:00,17.8,11.8,30.09,WNW,299,3.0,11.0,77,0.00,,---,0.00,0.00,VWS V14.00,2013-01-03 09:22:00,
2013-01-03 03:27:00,17.5,11.5,30.09,WNW,292,4.0,6.0,77,0.00,,---,0.00,0.00,VWS V14.00,2013-01-03 09:27:00,
2013-01-03 03:32:00,17.3,11.3,30.10,WNW,296,8.0,8.0,77,0.00,,---,0.00,0.00,VWS V14.00,2013-01-03 09:32:00,
2013-01-03 03:37:00,17.3,11.3,30.10,NW,323,3.0,3.0,77,0.00,,---,0.00,0.00,VWS V14.00,2013-01-03 09:37:00,
2013-01-03 03:42:00,17.3,11.3,30.10,NW,306,16.0,16.0,77,0.00,,---,0.00,0.00,VWS V14.00,2013-01-03 09:42:00,
2013-01-03 03:47:00,17.2,11.2,30.10,WNW,302,3.0,12.0,77,0.00,,---,0.00,0.00,VWS V14.00,2013-01-03 09:47:00,
2013-01-03 03:52:00,17.0,11.1,30.10,WNW,302,8.0,8.0,77,0.00,,---,0.00,0.00,VWS V14.00,2013-01-03 09:52:00,
2013-01-03 03:57:00,17.0,11.1,30.10,NW,318,11.0,12.0,77,0.00,,---,0.00,0.00,VWS V14.00,2013-01-03 09:57:00,
2013-01-03 04:02:00,16.9,10.9,30.10,NW,308,5.0,12.0,77,0.00,,---,0.00,0.00,VWS V14.00,2013-01-03 10:02:00,
2013-01-03 04:07:00,16.7,10.8,30.10,West,261,3.0,6.0,77,0.00,,---,0.00,0.00,VWS V14.00,2013-01-03 10:07:00,
2013-01-03 04:12:00,16.7,10.8,30.10,WNW,299,10.0,10.0,77,0.00,,---,0.00,0.00,VWS V14.00,2013-01-03 10:12:00,
2013-01-03 04:17:00,16.5,10.3,30.10,WNW,289,8.0,8.0,76,0.00,,---,0.00,0.00,VWS V14.00,2013-01-03 10:17:00,
2013-01-03 04:22:00,16.5,10.3,30.10,NW,305,5.0,6.0,76,0.00,,---,0.00,0.00,VWS V14.00,2013-01-03 10:22:00,
2013-01-03 04:27:00,16.4,10.2,30.10,West,280,10.0,10.0,76,0.00,,---,0.00,0.00,VWS V14.00,2013-01-03 10:27:00,
2013-01-03 04:32:00,16.2,10.0,30.11,WNW,294,2.0,8.0,76,0.00,,---,0.00,0.00,VWS V14.00,2013-01-03 10:32:00,
2013-01-03 04:37:00,16.2,10.0,30.11,WNW,285,5.0,5.0,76,0.00,,---,0.00,0.00,VWS V14.00,2013-01-03 10:37:00,
2013-01-03 04:42:00,16.1,9.9,30.11,WNW,299,3.0,3.0,76,0.00,,---,0.00,0.00,VWS V14.00,2013-01-03 10:42:00,
2013-01-03 04:47:00,16.1,9.9,30.11,NW,309,6.0,6.0,76,0.00,,---,0.00,0.00,VWS V14.00,2013-01-03 10:47:00,
2013-01-03 04:52:00,16.1,9.9,30.11,NW,323,3.0,3.0,76,0.00,,---,0.00,0.00,VWS V14.00,2013-01-03 10:52:00,
2013-01-03 04:57:00,15.7,9.5,30.11,West,277,3.0,3.0,76,0.00,,---,0.00,0.00,VWS V14.00,2013-01-03 10:57:00,
2013-01-03 05:02:00,15.6,9.4,30.12,WNW,301,2.0,6.0,76,0.00,,---,0.00,0.00,VWS V14.00,2013-01-03 11:02:00,
2013-01-03 05:07:00,15.6,9.4,30.12,NNW,332,3.0,7.0,76,0.00,,---,0.00,0.00,VWS V14.00,2013-01-03 11:07:00,
2013-01-03 05:12:00,15.6,9.4,30.12,West,268,7.0,7.0,76,0.00,,---,0.00,0.00,VWS V14.00,2013-01-03 11:12:00,
2013-01-03 05:17:00,15.4,9.2,30.13,NNW,339,8.0,8.0,76,0.00,,---,0.00,0.00,VWS V14.00,2013-01-03 11:17:00,
2013-01-03 05:22:00,15.4,9.2,30.13,West,278,4.0,5.0,76,0.00,,---,0.00,0.00,VWS V14.00,2013-01-03 11:22:00,
2013-01-03 05:27:00,15.4,9.2,30.13,West,278,7.0,7.0,76,0.00,,---,0.00,0.00,VWS V14.00,2013-01-03 11:27:00,
2013-01-03 05:32:00,15.4,9.2,30.14,WNW,301,2.0,2.0,76,0.00,,---,0.00,0.00,VWS V14.00,2013-01-03 11:32:00,
2013-01-03 05:37:00,15.4,9.2,30.14,WNW,292,6.0,6.0,76,0.00,,---,0.00,0.00,VWS V14.00,2013-01-03 11:37:00,
2013-01-03 05:42:00,15.4,9.2,30.14,WNW,287,3.0,3.0,76,0.00,,---,0.00,0.00,VWS V14.00,2013-01-03 11:42:00,
2013-01-03 05:47:00,15.4,9.2,30.14,NNW,333,5.0,5.0,76,0.00,,---,0.00,0.00,VWS V14.00,2013-01-03 11:47:00,
2013-01-03 05:52:00,15.4,9.2,30.14,WNW,302,2.0,2.0,76,0.00,,---,0.00,0.00,VWS V14.00,2013-01-03 11:52:00,
2013-01-03 05:57:00,15.2,9.0,30.14,WNW,296,5.0,5.0,76,0.00,,---,0.00,0.00,VWS V14.00,2013-01-03 11:57:00,
2013-01-03 06:02:00,15.2,9.0,30.14,WNW,296,7.0,7.0,76,0.00,,---,0.00,0.00,VWS V14.00,2013-01-03 12:02:00,
2013-01-03 06:07:00,15.2,9.0,30.14,NW,313,11.0,11.0,76,0.00,,---,0.00,0.00,VWS V14.00,2013-01-03 12:07:00,
2013-01-03 06:12:00,15.1,8.9,30.14,West,281,6.0,6.0,76,0.00,,---,0.00,0.00,VWS V14.00,2013-01-03 12:12:00,
2013-01-03 06:17:00,15.1,8.9,30.15,NW,315,4.0,5.0,76,0.00,,---,0.00,0.00,VWS V14.00,2013-01-03 12:17:00,
2013-01-03 06:22:00,14.9,8.4,30.15,WNW,298,6.0,8.0,75,0.00,,---,0.00,0.00,VWS V14.00,2013-01-03 12:22:00,
2013-01-03 06:27:00,14.9,8.4,30.15,NW,304,5.0,10.0,75,0.00,,---,0.00,0.00,VWS V14.00,2013-01-03 12:27:00,
2013-01-03 06:32:00,14.8,8.3,30.16,NW,309,6.0,6.0,75,0.00,,---,0.00,0.00,VWS V14.00,2013-01-03 12:32:00,
2013-01-03 06:37:00,14.8,8.3,30.16,WNW,294,3.0,3.0,75,0.00,,---,0.00,0.00,VWS V14.00,2013-01-03 12:37:00,
2013-01-03 06:42:00,14.8,8.3,30.16,NW,319,3.0,3.0,75,0.00,,---,0.00,0.00,VWS V14.00,2013-01-03 12:42:00,
2013-01-03 06:47:00,14.8,8.3,30.16,WNW,291,5.0,5.0,75,0.00,,---,0.00,0.00,VWS V14.00,2013-01-03 12:47:00,
2013-01-03 06:52:00,14.3,7.8,30.16,WNW,294,9.0,9.0,75,0.00,,---,0.00,0.00,VWS V14.00,2013-01-03 12:52:00,
2013-01-03 06:57:00,14.1,7.7,30.16,WNW,285,2.0,2.0,75,0.00,,---,0.00,0.00,VWS V14.00,2013-01-03 12:57:00,
2013-01-03 07:02:00,14.1,7.7,30.17,NW,309,4.0,8.0,75,0.00,,---,0.00,0.00,VWS V14.00,2013-01-03 13:02:00,
2013-01-03 07:07:00,14.1,7.9,30.17,WNW,295,11.0,11.0,76,0.00,,---,0.00,0.00,VWS V14.00,2013-01-03 13:07:00,
2013-01-03 07:12:00,14.1,7.9,30.17,WNW,288,3.0,4.0,76,0.00,,---,0.00,0.00,VWS V14.00,2013-01-03 13:12:00,
2013-01-03 07:17:00,14.1,7.9,30.17,NW,322,7.0,8.0,76,0.00,,---,0.00,0.00,VWS V14.00,2013-01-03 13:17:00,
2013-01-03 07:22:00,14.0,7.8,30.17,WNW,296,4.0,6.0,76,0.00,,---,0.00,0.00,VWS V14.00,2013-01-03 13:22:00,
2013-01-03 07:27:00,14.0,7.8,30.17,NW,308,6.0,6.0,76,0.00,,---,0.00,0.00,VWS V14.00,2013-01-03 13:27:00,
2013-01-03 07:32:00,13.8,7.7,30.17,NW,316,4.0,4.0,76,0.00,,---,0.00,0.00,VWS V14.00,2013-01-03 13:32:00,
2013-01-03 07:37:00,13.8,7.7,30.17,WNW,292,7.0,7.0,76,0.00,,---,0.00,0.00,VWS V14.00,2013-01-03 13:37:00,
2013-01-03 07:42:00,13.6,7.5,30.17,WNW,294,11.0,11.0,76,0.00,,---,0.00,0.00,VWS V14.00,2013-01-03 13:42:00,
2013-01-03 07:47:00,13.5,7.4,30.17,NW,304,4.0,4.0,76,0.00,,---,0.00,0.00,VWS V14.00,2013-01-03 13:47:00,
2013-01-03 07:52:00,13.5,7.7,30.17,NW,319,2.0,2.0,77,0.00,,---,0.00,0.00,VWS V14.00,2013-01-03 13:52:00,
2013-01-03 07:57:00,13.5,7.7,30.17,WNW,298,4.0,4.0,77,0.00,,---,0.00,0.00,VWS V14.00,2013-01-03 13:57:00,
2013-01-03 08:02:00,13.5,7.7,30.17,WNW,302,2.0,5.0,77,0.00,,---,0.00,0.00,VWS V14.00,2013-01-03 14:02:00,
2013-01-03 08:07:00,13.5,7.9,30.17,WNW,288,5.0,5.0,78,0.00,,---,0.00,0.00,VWS V14.00,2013-01-03 14:07:00,
2013-01-03 08:12:00,13.5,7.9,30.17,WNW,291,2.0,3.0,78,0.00,,---,0.00,0.00,VWS V14.00,2013-01-03 14:12:00,
2013-01-03 08:17:00,13.5,7.9,30.18,West,272,3.0,3.0,78,0.00,,---,0.00,0.00,VWS V14.00,2013-01-03 14:17:00,
2013-01-03 08:22:00,13.5,8.2,30.18,NW,305,3.0,3.0,79,0.00,,---,0.00,0.00,VWS V14.00,2013-01-03 14:22:00,
2013-01-03 08:27:00,13.5,8.2,30.18,WNW,292,3.0,3.0,79,0.00,,---,0.00,0.00,VWS V14.00,2013-01-03 14:27:00,
2013-01-03 08:32:00,13.3,8.0,30.18,NW,320,8.0,10.0,79,0.00,,---,0.00,12.00,VWS V14.00,2013-01-03 14:32:00,
2013-01-03 08:37:00,13.3,8.0,30.18,WNW,301,2.0,2.0,79,0.00,,---,0.00,16.00,VWS V14.00,2013-01-03 14:37:00,
2013-01-03 08:42:00,13.3,8.0,30.18,WNW,301,7.0,7.0,79,0.00,,---,0.00,21.00,VWS V14.00,2013-01-03 14:42:00,
2013-01-03 08:47:00,13.1,7.8,30.19,WNW,295,10.0,10.0,79,0.00,,---,0.00,21.00,VWS V14.00,2013-01-03 14:47:00,
2013-01-03 08:52:00,12.9,7.6,30.19,NW,323,5.0,5.0,79,0.00,,---,0.00,21.00,VWS V14.00,2013-01-03 14:52:00,
2013-01-03 08:57:00,12.9,7.6,30.19,NW,326,5.0,6.0,79,0.00,,---,0.00,35.00,VWS V14.00,2013-01-03 14:57:00,
2013-01-03 09:02:00,12.8,7.5,30.20,WSW,250,4.0,4.0,79,0.00,,---,0.00,35.00,VWS V14.00,2013-01-03 15:02:00,
2013-01-03 09:07:00,12.8,7.5,30.20,West,270,5.0,5.0,79,0.00,,---,0.00,35.00,VWS V14.00,2013-01-03 15:07:00,
2013-01-03 09:12:00,12.8,7.5,30.20,West,281,6.0,6.0,79,0.00,,---,0.00,49.00,VWS V14.00,2013-01-03 15:12:00,
2013-01-03 09:17:00,12.4,7.1,30.20,WNW,288,3.0,7.0,79,0.00,,---,0.00,62.00,VWS V14.00,2013-01-03 15:17:00,
2013-01-03 09:22:00,12.1,6.8,30.20,WNW,284,2.0,2.0,79,0.00,,---,0.00,62.00,VWS V14.00,2013-01-03 15:22:00,
2013-01-03 09:27:00,12.1,6.8,30.20,WNW,302,6.0,6.0,79,0.00,,---,0.00,62.00,VWS V14.00,2013-01-03 15:27:00,
2013-01-03 09:32:00,12.1,6.8,30.21,NW,313,10.0,10.0,79,0.00,,---,0.00,62.00,VWS V14.00,2013-01-03 15:32:00,
2013-01-03 09:37:00,12.1,7.1,30.21,NW,313,3.0,3.0,80,0.00,,---,0.00,62.00,VWS V14.00,2013-01-03 15:37:00,
2013-01-03 09:42:00,11.9,6.9,30.21,NW,315,5.0,6.0,80,0.00,,---,0.00,62.00,VWS V14.00,2013-01-03 15:42:00,
2013-01-03 09:47:00,11.7,6.5,30.21,NW,323,5.0,5.0,79,0.00,,---,0.00,62.00,VWS V14.00,2013-01-03 15:47:00,
2013-01-03 09:52:00,11.9,6.7,30.21,WNW,295,7.0,7.0,79,0.00,,---,0.00,62.00,VWS V14.00,2013-01-03 15:52:00,
2013-01-03 09:57:00,11.9,6.7,30.21,NW,311,5.0,6.0,79,0.00,,---,0.00,62.00,VWS V14.00,2013-01-03 15:57:00,
2013-01-03 10:02:00,11.9,6.7,30.22,WNW,299,6.0,6.0,79,0.00,,---,0.00,62.00,VWS V14.00,2013-01-03 16:02:00,
2013-01-03 10:07:00,11.9,6.7,30.22,NW,309,6.0,6.0,79,0.00,,---,0.00,139.00,VWS V14.00,2013-01-03 16:07:00,
2013-01-03 10:12:00,12.1,6.8,30.22,NW,308,5.0,6.0,79,0.00,,---,0.00,139.00,VWS V14.00,2013-01-03 16:12:00,
2013-01-03 10:17:00,12.1,6.6,30.23,West,271,7.0,7.0,78,0.00,,---,0.00,150.00,VWS V14.00,2013-01-03 16:17:00,
2013-01-03 10:22:00,12.1,6.6,30.23,WNW,299,2.0,2.0,78,0.00,,---,0.00,150.00,VWS V14.00,2013-01-03 16:22:00,
2013-01-03 10:27:00,12.4,6.9,30.23,West,277,10.0,10.0,78,0.00,,---,0.00,150.00,VWS V14.00,2013-01-03 16:27:00,
2013-01-03 10:32:00,12.1,6.3,30.23,WNW,287,5.0,5.0,77,0.00,,---,0.00,150.00,VWS V14.00,2013-01-03 16:32:00,
2013-01-03 10:37:00,12.3,6.5,30.23,WNW,296,5.0,5.0,77,0.00,,---,0.00,150.00,VWS V14.00,2013-01-03 16:37:00,
2013-01-03 10:42:00,12.4,6.3,30.23,NW,304,2.0,6.0,76,0.00,,---,0.00,183.00,VWS V14.00,2013-01-03 16:42:00,
2013-01-03 10:47:00,12.6,6.5,30.23,West,277,10.0,10.0,76,0.00,,---,0.00,183.00,VWS V14.00,2013-01-03 16:47:00,
2013-01-03 10:52:00,12.4,6.0,30.23,NW,320,6.0,7.0,75,0.00,,---,0.00,183.00,VWS V14.00,2013-01-03 16:52:00,
2013-01-03 10:57:00,12.4,6.0,30.23,NW,306,6.0,6.0,75,0.00,,---,0.00,183.00,VWS V14.00,2013-01-03 16:57:00,
2013-01-03 11:02:00,12.6,6.2,30.23,NW,305,5.0,5.0,75,0.00,,---,0.00,183.00,VWS V14.00,2013-01-03 17:02:00,
2013-01-03 11:07:00,12.6,6.2,30.23,NW,313,5.0,5.0,75,0.00,,---,0.00,183.00,VWS V14.00,2013-01-03 17:07:00,
2013-01-03 11:12:00,12.8,6.4,30.23,SW,232,4.0,4.0,75,0.00,,---,0.00,183.00,VWS V14.00,2013-01-03 17:12:00,
2013-01-03 11:17:00,12.8,6.4,30.22,WNW,282,3.0,3.0,75,0.00,,---,0.00,225.00,VWS V14.00,2013-01-03 17:17:00,
2013-01-03 11:22:00,12.8,6.4,30.22,WNW,282,3.0,3.0,75,0.00,,---,0.00,225.00,VWS V14.00,2013-01-03 17:22:00,
2013-01-03 11:27:00,12.8,6.4,30.22,West,272,6.0,6.0,75,0.00,,---,0.00,225.00,VWS V14.00,2013-01-03 17:27:00,
2013-01-03 11:32:00,12.6,6.2,30.22,NW,313,3.0,3.0,75,0.00,,---,0.00,225.00,VWS V14.00,2013-01-03 17:32:00,
2013-01-03 11:37:00,12.6,5.0,30.22,WSW,239,4.0,5.0,71,0.00,,---,0.00,183.00,VWS V14.00,2013-01-03 17:37:00,
2013-01-03 11:42:00,12.6,5.0,30.22,WNW,289,2.0,2.0,71,0.00,,---,0.00,183.00,VWS V14.00,2013-01-03 17:42:00,
2013-01-03 11:47:00,12.6,5.0,30.21,NW,305,5.0,5.0,71,0.00,,---,0.00,183.00,VWS V14.00,2013-01-03 17:47:00,
2013-01-03 11:52:00,12.6,5.0,30.21,WNW,288,2.0,2.0,71,0.00,,---,0.00,183.00,VWS V14.00,2013-01-03 17:52:00,
2013-01-03 11:57:00,13.1,5.5,30.21,WNW,294,6.0,6.0,71,0.00,,---,0.00,183.00,VWS V14.00,2013-01-03 17:57:00,
2013-01-03 12:02:00,12.9,5.3,30.21,WNW,294,5.0,8.0,71,0.00,,---,0.00,183.00,VWS V14.00,2013-01-03 18:02:00,
2013-01-03 12:07:00,12.9,5.0,30.21,WSW,239,5.0,5.0,70,0.00,,---,0.00,183.00,VWS V14.00,2013-01-03 18:07:00,
2013-01-03 12:12:00,13.1,5.2,30.21,West,260,6.0,6.0,70,0.00,,---,0.00,352.00,VWS V14.00,2013-01-03 18:12:00,
2013-01-03 12:17:00,13.6,5.7,30.20,West,275,2.0,2.0,70,0.00,,---,0.00,343.00,VWS V14.00,2013-01-03 18:17:00,
2013-01-03 12:22:00,13.8,5.8,30.20,WNW,301,2.0,3.0,70,0.00,,---,0.00,348.00,VWS V14.00,2013-01-03 18:22:00,
2013-01-03 12:27:00,13.8,5.8,30.20,NW,320,5.0,7.0,70,0.00,,---,0.00,350.00,VWS V14.00,2013-01-03 18:27:00,
2013-01-03 12:32:00,14.0,5.4,30.19,West,281,2.0,2.0,68,0.00,,---,0.00,350.00,VWS V14.00,2013-01-03 18:32:00,
2013-01-03 12:37:00,14.1,5.5,30.19,NW,308,2.0,2.0,68,0.00,,---,0.00,357.00,VWS V14.00,2013-01-03 18:37:00,
2013-01-03 12:42:00,14.1,5.5,30.19,West,265,5.0,6.0,68,0.00,,---,0.00,357.00,VWS V14.00,2013-01-03 18:42:00,
2013-01-03 12:47:00,14.0,5.1,30.19,West,271,3.0,3.0,67,0.00,,---,0.00,357.00,VWS V14.00,2013-01-03 18:47:00,
2013-01-03 12:52:00,14.1,5.2,30.19,West,261,2.0,2.0,67,0.00,,---,0.00,357.00,VWS V14.00,2013-01-03 18:52:00,
2013-01-03 12:57:00,14.3,5.4,30.19,WSW,256,4.0,4.0,67,0.00,,---,0.00,345.00,VWS V14.00,2013-01-03 18:57:00,
2013-01-03 13:02:00,14.3,5.4,30.19,West,278,3.0,3.0,67,0.00,,---,0.00,345.00,VWS V14.00,2013-01-03 19:02:00,
2013-01-03 13:07:00,14.0,5.1,30.19,West,261,2.0,2.0,67,0.00,,---,0.00,340.00,VWS V14.00,2013-01-03 19:07:00,
2013-01-03 13:12:00,14.0,4.8,30.19,West,271,4.0,5.0,66,0.00,,---,0.00,340.00,VWS V14.00,2013-01-03 19:12:00,
2013-01-03 13:17:00,14.0,4.8,30.19,NNW,336,3.0,8.0,66,0.00,,---,0.00,340.00,VWS V14.00,2013-01-03 19:17:00,
2013-01-03 13:54:00,12.9,3.4,30.19,NW,306,7.0,7.0,65,0.00,,---,0.00,297.00,VWS V14.00,2013-01-03 19:54:00,
2013-01-03 13:59:00,12.8,2.9,30.19,NW,320,5.0,6.0,64,0.00,,---,0.00,297.00,VWS V14.00,2013-01-03 19:59:00,
2013-01-03 14:04:00,12.8,2.9,30.19,West,268,4.0,4.0,64,0.00,,---,0.00,285.00,VWS V14.00,2013-01-03 20:04:00,
2013-01-03 14:09:00,12.9,3.0,30.19,West,275,0.0,0.0,64,0.00,,---,0.00,276.00,VWS V14.00,2013-01-03 20:09:00,
2013-01-03 14:14:00,13.1,3.2,30.19,West,271,3.0,3.0,64,0.00,,---,0.00,269.00,VWS V14.00,2013-01-03 20:14:00,
2013-01-03 14:19:00,13.3,3.1,30.19,WSW,248,1.0,2.0,63,0.00,,---,0.00,269.00,VWS V14.00,2013-01-03 20:19:00,
2013-01-03 14:24:00,13.5,3.3,30.19,NW,319,7.0,7.0,63,0.00,,---,0.00,269.00,VWS V14.00,2013-01-03 20:24:00,
2013-01-03 14:29:00,13.6,3.0,30.20,WSW,251,2.0,2.0,62,0.00,,---,0.00,246.00,VWS V14.00,2013-01-03 20:29:00,
2013-01-03 14:34:00,13.6,2.7,30.20,West,265,2.0,2.0,61,0.00,,---,0.00,246.00,VWS V14.00,2013-01-03 20:34:00,
2013-01-03 14:39:00,13.6,2.3,30.20,West,277,4.0,4.0,60,0.00,,---,0.00,236.00,VWS V14.00,2013-01-03 20:39:00,
2013-01-03 14:44:00,13.8,2.5,30.20,WSW,258,3.0,3.0,60,0.00,,---,0.00,222.00,VWS V14.00,2013-01-03 20:44:00,
2013-01-03 14:49:00,13.8,2.5,30.20,WSW,246,2.0,2.0,60,0.00,,---,0.00,222.00,VWS V14.00,2013-01-03 20:49:00,
2013-01-03 14:54:00,14.0,2.7,30.20,WNW,284,3.0,3.0,60,0.00,,---,0.00,209.00,VWS V14.00,2013-01-03 20:54:00,
2013-01-03 14:59:00,14.1,2.4,30.19,WNW,296,6.0,6.0,59,0.00,,---,0.00,190.00,VWS V14.00,2013-01-03 20:59:00,
2013-01-03 15:04:00,14.1,2.4,30.19,SW,222,6.0,6.0,59,0.00,,---,0.00,190.00,VWS V14.00,2013-01-03 21:04:00,
2013-01-03 15:09:00,13.8,2.1,30.19,WNW,287,3.0,3.0,59,0.00,,---,0.00,190.00,VWS V14.00,2013-01-03 21:09:00,
2013-01-03 15:14:00,13.6,2.0,30.19,West,268,1.0,5.0,59,0.00,,---,0.00,77.00,VWS V14.00,2013-01-03 21:14:00,
2013-01-03 15:19:00,13.6,2.3,30.19,West,268,5.0,5.0,60,0.00,,---,0.00,77.00,VWS V14.00,2013-01-03 21:19:00,
2013-01-03 15:24:00,13.6,2.3,30.19,WSW,247,5.0,5.0,60,0.00,,---,0.00,77.00,VWS V14.00,2013-01-03 21:24:00,
2013-01-03 15:29:00,13.6,2.3,30.19,West,263,0.0,0.0,60,0.00,,---,0.00,77.00,VWS V14.00,2013-01-03 21:29:00,
2013-01-03 15:34:00,13.8,2.5,30.19,SW,229,2.0,2.0,60,0.00,,---,0.00,19.00,VWS V14.00,2013-01-03 21:34:00,
2013-01-03 15:39:00,13.8,2.5,30.19,West,277,1.0,1.0,60,0.00,,---,0.00,19.00,VWS V14.00,2013-01-03 21:39:00,
2013-01-03 15:44:00,13.8,2.5,30.19,WSW,248,1.0,1.0,60,0.00,,---,0.00,18.00,VWS V14.00,2013-01-03 21:44:00,
2013-01-03 15:49:00,14.0,2.7,30.19,WNW,285,0.0,0.0,60,0.00,,---,0.00,18.00,VWS V14.00,2013-01-03 21:49:00,
2013-01-03 15:54:00,14.1,3.1,30.19,WSW,256,2.0,2.0,61,0.00,,---,0.00,18.00,VWS V14.00,2013-01-03 21:54:00,
2013-01-03 15:59:00,14.1,3.1,30.20,WNW,285,3.0,3.0,61,0.00,,---,0.00,16.00,VWS V14.00,2013-01-03 21:59:00,
2013-01-03 16:04:00,14.1,3.1,30.20,SW,222,2.0,3.0,61,0.00,,---,0.00,16.00,VWS V14.00,2013-01-03 22:04:00,
2013-01-03 16:09:00,14.1,3.1,30.20,SSW,208,2.0,2.0,61,0.00,,---,0.00,16.00,VWS V14.00,2013-01-03 22:09:00,
2013-01-03 16:14:00,14.1,3.1,30.20,West,264,5.0,5.0,61,0.00,,---,0.00,21.00,VWS V14.00,2013-01-03 22:14:00,
2013-01-03 16:19:00,14.1,3.8,30.19,WSW,256,5.0,5.0,63,0.00,,---,0.00,21.00,VWS V14.00,2013-01-03 22:19:00,
2013-01-03 16:24:00,14.1,3.8,30.19,SW,227,5.0,5.0,63,0.00,,---,0.00,21.00,VWS V14.00,2013-01-03 22:24:00,
2013-01-03 16:29:00,14.1,4.2,30.19,SW,229,3.0,3.0,64,0.00,,---,0.00,21.00,VWS V14.00,2013-01-03 22:29:00,
2013-01-03 16:34:00,14.1,4.2,30.19,West,271,2.0,2.0,64,0.00,,---,0.00,21.00,VWS V14.00,2013-01-03 22:34:00,
2013-01-03 16:39:00,14.0,4.4,30.19,WSW,257,3.0,6.0,65,0.00,,---,0.00,21.00,VWS V14.00,2013-01-03 22:39:00,
2013-01-03 16:44:00,14.0,4.4,30.19,SW,227,0.0,1.0,65,0.00,,---,0.00,21.00,VWS V14.00,2013-01-03 22:44:00,
2013-01-03 16:49:00,14.0,4.4,30.19,WSW,250,6.0,6.0,65,0.00,,---,0.00,21.00,VWS V14.00,2013-01-03 22:49:00,
2013-01-03 16:54:00,13.8,4.6,30.19,SW,227,1.0,3.0,66,0.00,,---,0.00,21.00,VWS V14.00,2013-01-03 22:54:00,
2013-01-03 16:59:00,13.8,4.6,30.19,WSW,246,0.0,2.0,66,0.00,,---,0.00,21.00,VWS V14.00,2013-01-03 22:59:00,
2013-01-03 17:04:00,13.8,4.6,30.19,WSW,241,1.0,1.0,66,0.00,,---,0.00,21.00,VWS V14.00,2013-01-03 23:04:00,
2013-01-03 17:09:00,13.6,4.4,30.19,West,275,2.0,2.0,66,0.00,,---,0.00,21.00,VWS V14.00,2013-01-03 23:09:00,
2013-01-03 17:14:00,13.5,4.3,30.19,WSW,240,5.0,5.0,66,0.00,,---,0.00,21.00,VWS V14.00,2013-01-03 23:14:00,
2013-01-03 17:19:00,13.5,4.3,30.20,West,264,2.0,2.0,66,0.00,,---,0.00,0.00,VWS V14.00,2013-01-03 23:19:00,
2013-01-03 17:24:00,13.3,4.1,30.20,West,272,1.0,1.0,66,0.00,,---,0.00,0.00,VWS V14.00,2013-01-03 23:24:00,
2013-01-03 17:29:00,13.1,3.9,30.20,WSW,258,3.0,3.0,66,0.00,,---,0.00,0.00,VWS V14.00,2013-01-03 23:29:00,
2013-01-03 17:34:00,12.9,3.7,30.19,WSW,257,1.0,2.0,66,0.00,,---,0.00,0.00,VWS V14.00,2013-01-03 23:34:00,
2013-01-03 17:39:00,12.8,3.6,30.19,West,268,2.0,2.0,66,0.00,,---,0.00,0.00,VWS V14.00,2013-01-03 23:39:00,
2013-01-03 17:44:00,12.8,3.6,30.19,SW,220,1.0,1.0,66,0.00,,---,0.00,0.00,VWS V14.00,2013-01-03 23:44:00,
2013-01-03 17:49:00,12.6,3.4,30.19,SW,215,3.0,3.0,66,0.00,,---,0.00,0.00,VWS V14.00,2013-01-03 23:49:00,
2013-01-03 17:54:00,12.6,3.4,30.19,SSW,212,0.0,1.0,66,0.00,,---,0.00,0.00,VWS V14.00,2013-01-03 23:54:00,
2013-01-03 17:59:00,12.6,3.4,30.19,SW,223,1.0,1.0,66,0.00,,---,0.00,0.00,VWS V14.00,2013-01-03 23:59:00,
2013-01-03 18:04:00,12.4,3.2,30.18,WSW,243,2.0,2.0,66,0.00,,---,0.00,0.00,VWS V14.00,2013-01-04 00:04:00,
2013-01-03 18:09:00,12.3,4.4,30.18,SW,233,1.0,2.0,70,0.00,,---,0.00,0.00,VWS V14.00,2013-01-04 00:09:00,
2013-01-03 18:14:00,12.3,4.4,30.18,SW,233,2.0,3.0,70,0.00,,---,0.00,0.00,VWS V14.00,2013-01-04 00:14:00,
2013-01-03 18:19:00,12.1,4.2,30.18,WSW,241,1.0,1.0,70,0.00,,---,0.00,0.00,VWS V14.00,2013-01-04 00:19:00,
2013-01-03 18:24:00,11.9,4.0,30.18,SW,230,2.0,2.0,70,0.00,,---,0.00,0.00,VWS V14.00,2013-01-04 00:24:00,
2013-01-03 18:29:00,11.9,4.0,30.18,SSW,209,3.0,3.0,70,0.00,,---,0.00,0.00,VWS V14.00,2013-01-04 00:29:00,
2013-01-03 18:34:00,11.9,4.0,30.18,SSW,206,1.0,2.0,70,0.00,,---,0.00,0.00,VWS V14.00,2013-01-04 00:34:00,
2013-01-03 18:39:00,11.7,3.8,30.18,SW,226,2.0,2.0,70,0.00,,---,0.00,0.00,VWS V14.00,2013-01-04 00:39:00,
2013-01-03 18:44:00,11.7,3.8,30.18,SW,224,1.0,1.0,70,0.00,,---,0.00,0.00,VWS V14.00,2013-01-04 00:44:00,
2013-01-03 18:49:00,11.6,3.7,30.17,WSW,237,3.0,3.0,70,0.00,,---,0.00,0.00,VWS V14.00,2013-01-04 00:49:00,
2013-01-03 18:54:00,11.6,3.7,30.17,SW,230,1.0,1.0,70,0.00,,---,0.00,0.00,VWS V14.00,2013-01-04 00:54:00,
2013-01-03 18:59:00,11.4,3.5,30.17,WSW,237,2.0,2.0,70,0.00,,---,0.00,0.00,VWS V14.00,2013-01-04 00:59:00,
2013-01-03 19:04:00,11.4,3.5,30.17,SW,232,2.0,2.0,70,0.00,,---,0.00,0.00,VWS V14.00,2013-01-04 01:04:00,
2013-01-03 19:09:00,11.4,3.5,30.17,SW,219,2.0,2.0,70,0.00,,---,0.00,0.00,VWS V14.00,2013-01-04 01:09:00,
2013-01-03 19:14:00,11.4,4.7,30.17,SW,234,4.0,4.0,74,0.00,,---,0.00,0.00,VWS V14.00,2013-01-04 01:14:00,
2013-01-03 19:19:00,11.4,4.7,30.16,SSW,192,4.0,6.0,74,0.00,,---,0.00,0.00,VWS V14.00,2013-01-04 01:19:00,
2013-01-03 19:24:00,11.4,5.0,30.16,WSW,240,3.0,3.0,75,0.00,,---,0.00,0.00,VWS V14.00,2013-01-04 01:24:00,
2013-01-03 19:29:00,11.4,5.0,30.16,SSW,210,6.0,6.0,75,0.00,,---,0.00,0.00,VWS V14.00,2013-01-04 01:29:00,
2013-01-03 19:34:00,11.6,5.2,30.15,SSW,210,3.0,4.0,75,0.00,,---,0.00,0.00,VWS V14.00,2013-01-04 01:34:00,
2013-01-03 19:39:00,11.6,5.5,30.15,SSW,213,3.0,3.0,76,0.00,,---,0.00,0.00,VWS V14.00,2013-01-04 01:39:00,
2013-01-03 19:44:00,11.6,5.5,30.15,SSW,205,4.0,4.0,76,0.00,,---,0.00,0.00,VWS V14.00,2013-01-04 01:44:00,
2013-01-03 19:49:00,11.6,5.5,30.14,SW,220,5.0,5.0,76,0.00,,---,0.00,0.00,VWS V14.00,2013-01-04 01:49:00,
2013-01-03 19:54:00,11.9,5.8,30.14,WSW,250,4.0,5.0,76,0.00,,---,0.00,0.00,VWS V14.00,2013-01-04 01:54:00,
2013-01-03 19:59:00,11.9,6.1,30.14,SSW,213,6.0,6.0,77,0.00,,---,0.00,0.00,VWS V14.00,2013-01-04 01:59:00,
2013-01-03 20:04:00,11.9,6.1,30.14,SW,216,8.0,8.0,77,0.00,,---,0.00,0.00,VWS V14.00,2013-01-04 02:04:00,
2013-01-03 20:09:00,11.9,6.1,30.14,SW,215,5.0,5.0,77,0.00,,---,0.00,0.00,VWS V14.00,2013-01-04 02:09:00,
2013-01-03 20:14:00,11.9,6.1,30.14,SSW,209,2.0,5.0,77,0.00,,---,0.00,0.00,VWS V14.00,2013-01-04 02:14:00,
2013-01-03 20:19:00,11.9,6.1,30.13,SSW,205,1.0,1.0,77,0.00,,---,0.00,0.00,VWS V14.00,2013-01-04 02:19:00,
2013-01-03 20:24:00,11.9,6.1,30.13,SSW,203,1.0,1.0,77,0.00,,---,0.00,0.00,VWS V14.00,2013-01-04 02:24:00,
2013-01-03 20:29:00,11.9,6.1,30.13,SSW,199,1.0,3.0,77,0.00,,---,0.00,0.00,VWS V14.00,2013-01-04 02:29:00,
2013-01-03 20:34:00,11.9,6.4,30.12,SSW,205,2.0,2.0,78,0.00,,---,0.00,0.00,VWS V14.00,2013-01-04 02:34:00,
2013-01-03 20:39:00,12.1,6.6,30.12,SW,234,2.0,2.0,78,0.00,,---,0.00,0.00,VWS V14.00,2013-01-04 02:39:00,
2013-01-03 20:44:00,12.3,6.8,30.12,WSW,248,3.0,3.0,78,0.00,,---,0.00,0.00,VWS V14.00,2013-01-04 02:44:00,
2013-01-03 20:49:00,12.3,6.8,30.11,SW,226,8.0,8.0,78,0.00,,---,0.00,0.00,VWS V14.00,2013-01-04 02:49:00,
2013-01-03 20:54:00,12.4,6.9,30.11,SSW,195,7.0,7.0,78,0.00,,---,0.00,0.00,VWS V14.00,2013-01-04 02:54:00,
2013-01-03 20:59:00,12.4,6.9,30.11,WSW,237,5.0,7.0,78,0.00,,---,0.00,0.00,VWS V14.00,2013-01-04 02:59:00,
2013-01-03 21:04:00,12.4,7.1,30.11,SW,219,2.0,2.0,79,0.00,,---,0.00,0.00,VWS V14.00,2013-01-04 03:04:00,
2013-01-03 21:09:00,12.6,7.3,30.11,SW,230,2.0,2.0,79,0.00,,---,0.00,0.00,VWS V14.00,2013-01-04 03:09:00,
2013-01-03 21:14:00,12.6,7.3,30.11,WSW,256,0.0,0.0,79,0.00,,---,0.00,0.00,VWS V14.00,2013-01-04 03:14:00,
2013-01-03 21:19:00,12.6,7.3,30.11,SW,230,1.0,1.0,79,0.00,,---,0.00,0.00,VWS V14.00,2013-01-04 03:19:00,
2013-01-03 21:24:00,12.6,7.3,30.11,SSW,196,2.0,2.0,79,0.00,,---,0.00,0.00,VWS V14.00,2013-01-04 03:24:00,
2013-01-03 21:29:00,12.8,7.5,30.11,SSW,213,0.0,2.0,79,0.00,,---,0.00,0.00,VWS V14.00,2013-01-04 03:29:00,
2013-01-03 21:34:00,12.9,7.6,30.10,South,184,5.0,6.0,79,0.00,,---,0.00,0.00,VWS V14.00,2013-01-04 03:34:00,
2013-01-03 21:39:00,13.1,7.8,30.10,SW,229,6.0,6.0,79,0.00,,---,0.00,0.00,VWS V14.00,2013-01-04 03:39:00,
2013-01-03 21:44:00,13.1,7.8,30.10,SSW,212,2.0,2.0,79,0.00,,---,0.00,0.00,VWS V14.00,2013-01-04 03:44:00,
2013-01-03 21:49:00,13.1,7.8,30.10,SW,222,0.0,0.0,79,0.00,,---,0.00,0.00,VWS V14.00,2013-01-04 03:49:00,
2013-01-03 21:54:00,13.3,8.0,30.10,SSW,213,1.0,1.0,79,0.00,,---,0.00,0.00,VWS V14.00,2013-01-04 03:54:00,
2013-01-03 21:59:00,13.3,8.3,30.10,WSW,240,1.0,1.0,80,0.00,,---,0.00,0.00,VWS V14.00,2013-01-04 03:59:00,
2013-01-03 22:04:00,13.3,8.3,30.09,SSW,195,3.0,3.0,80,0.00,,---,0.00,0.00,VWS V14.00,2013-01-04 04:04:00,
2013-01-03 22:09:00,13.3,8.3,30.09,SW,234,6.0,6.0,80,0.00,,---,0.00,0.00,VWS V14.00,2013-01-04 04:09:00,
2013-01-03 22:14:00,13.3,8.3,30.09,SSW,205,6.0,6.0,80,0.00,,---,0.00,0.00,VWS V14.00,2013-01-04 04:14:00,
2013-01-03 22:19:00,13.3,8.3,30.08,SSW,198,3.0,3.0,80,0.00,,---,0.00,0.00,VWS V14.00,2013-01-04 04:19:00,
2013-01-03 22:24:00,13.3,8.3,30.08,SW,227,2.0,2.0,80,0.00,,---,0.00,0.00,VWS V14.00,2013-01-04 04:24:00,
2013-01-03 22:29:00,13.3,8.3,30.08,SW,226,2.0,3.0,80,0.00,,---,0.00,0.00,VWS V14.00,2013-01-04 04:29:00,
2013-01-03 22:34:00,13.1,8.1,30.09,SSW,212,0.0,0.0,80,0.00,,---,0.00,0.00,VWS V14.00,2013-01-04 04:34:00,
2013-01-03 22:39:00,13.1,8.1,30.09,SSW,213,2.0,2.0,80,0.00,,---,0.00,0.00,VWS V14.00,2013-01-04 04:39:00,
2013-01-03 22:44:00,13.1,8.1,30.09,SW,232,2.0,2.0,80,0.00,,---,0.00,0.00,VWS V14.00,2013-01-04 04:44:00,
2013-01-03 22:49:00,13.1,8.1,30.08,South,189,3.0,3.0,80,0.00,,---,0.00,0.00,VWS V14.00,2013-01-04 04:49:00,
2013-01-03 22:54:00,13.1,8.4,30.08,SSW,198,3.0,3.0,81,0.00,,---,0.00,0.00,VWS V14.00,2013-01-04 04:54:00,
2013-01-03 22:59:00,13.1,8.4,30.08,SSW,202,1.0,3.0,81,0.00,,---,0.00,0.00,VWS V14.00,2013-01-04 04:59:00,
2013-01-03 23:00:00,13.1,8.4,30.08,SW,227,5.0,5.0,81,0.00,,---,0.00,0.00,VWS V14.00,2013-01-04 05:00:00,
2013-01-03 23:01:00,13.1,8.4,30.08,SW,227,5.0,5.0,81,0.00,,---,0.00,0.00,VWS V14.00,2013-01-04 05:01:00,
2013-01-03 23:03:00,13.1,8.4,30.08,SSW,202,3.0,3.0,81,0.00,,---,0.00,0.00,VWS V14.00,2013-01-04 05:03:00,
2013-01-03 23:08:00,13.1,8.4,30.08,SW,217,4.0,4.0,81,0.00,,---,0.00,0.00,VWS V14.00,2013-01-04 05:08:00,
2013-01-03 23:13:00,13.1,8.4,30.08,South,186,1.0,2.0,81,0.00,,---,0.00,0.00,VWS V14.00,2013-01-04 05:13:00,
2013-01-03 23:18:00,13.1,8.4,30.07,SW,220,3.0,3.0,81,0.00,,---,0.00,0.00,VWS V14.00,2013-01-04 05:18:00,
2013-01-03 23:23:00,13.1,8.4,30.07,SW,220,3.0,3.0,81,0.00,,---,0.00,0.00,VWS V14.00,2013-01-04 05:23:00,
2013-01-03 23:28:00,13.1,8.4,30.07,SSW,202,2.0,2.0,81,0.00,,---,0.00,0.00,VWS V14.00,2013-01-04 05:28:00,
2013-01-03 23:33:00,13.3,8.8,30.06,SW,232,3.0,3.0,82,0.00,,---,0.00,0.00,VWS V14.00,2013-01-04 05:33:00,
2013-01-03 23:38:00,13.3,8.8,30.06,SW,226,2.0,2.0,82,0.00,,---,0.00,0.00,VWS V14.00,2013-01-04 05:38:00,
2013-01-03 23:43:00,13.3,8.8,30.06,SSW,205,2.0,2.0,82,0.00,,---,0.00,0.00,VWS V14.00,2013-01-04 05:43:00,
2013-01-03 23:48:00,13.5,9.0,30.06,SSW,208,1.0,1.0,82,0.00,,---,0.00,0.00,VWS V14.00,2013-01-04 05:48:00,
2013-01-03 23:53:00,13.5,9.0,30.06,SSW,203,7.0,7.0,82,0.00,,---,0.00,0.00,VWS V14.00,2013-01-04 05:53:00,
2013-01-03 23:58:00,13.8,9.3,30.06,WSW,241,2.0,2.0,82,0.00,,---,0.00,0.00,VWS V14.00,2013-01-04 05:58:00,